TimeCDT,TemperatureF,Dew PointF,Humidity,Sea Level PressureIn,VisibilityMPH,Wind Direction,Wind SpeedMPH,Gust SpeedMPH,PrecipitationIn,Events,Conditions,WindDirDegrees,DateUTC
12:53 AM,82.0,66.9,60,29.84,10.0,South,6.9,-,N/A,,Clear,190,2013-09-02 05:53:00
1:53 AM,81.0,68.0,65,29.86,10.0,Calm,Calm,-,N/A,,Partly Cloudy,0,2013-09-02 06:53:00
2:53 AM,79.0,70.0,74,29.87,10.0,Calm,Calm,-,N/A,,Clear,0,2013-09-02 07:53:00
3:53 AM,78.1,71.1,79,29.86,10.0,South,4.6,-,N/A,,Clear,190,2013-09-02 08:53:00
4:53 AM,79.0,70.0,74,29.87,10.0,South,3.5,-,N/A,,Partly Cloudy,170,2013-09-02 09:53:00
5:53 AM,79.0,71.1,77,29.88,10.0,WSW,3.5,-,N/A,,Mostly Cloudy,250,2013-09-02 10:53:00
6:53 AM,78.1,71.1,79,29.90,10.0,SSW,3.5,-,N/A,,Mostly Cloudy,200,2013-09-02 11:53:00
7:53 AM,78.1,71.1,79,29.95,7.0,NNE,6.9,-,0.03,Rain,Light Rain,30,2013-09-02 12:53:00
8:53 AM,75.9,71.1,85,29.95,10.0,NNW,9.2,-,0.07,Rain,Light Rain,330,2013-09-02 13:53:00
9:53 AM,73.9,69.1,85,29.96,10.0,WNW,6.9,-,0.00,Rain-Thunderstorm,Thunderstorms and Rain,300,2013-09-02 14:53:00
10:08 AM,73.4,69.8,88,29.99,10.0,West,4.6,-,0.00,Rain-Thunderstorm,Thunderstorms and Rain,280,2013-09-02 15:08:00
10:53 AM,75.0,70.0,84,29.96,10.0,SE,3.5,-,0.01,Rain,Light Rain,140,2013-09-02 15:53:00
11:53 AM,75.9,71.1,85,29.97,10.0,Calm,Calm,-,0.01,Rain,Light Rain,0,2013-09-02 16:53:00
12:53 PM,78.1,72.0,81,29.94,10.0,South,6.9,-,0.00,,Mostly Cloudy,170,2013-09-02 17:53:00
1:53 PM,82.0,70.0,67,29.94,10.0,South,3.5,-,N/A,,Clear,170,2013-09-02 18:53:00
2:53 PM,86.0,68.0,55,29.92,10.0,Variable,3.5,-,N/A,,Clear,0,2013-09-02 19:53:00
3:53 PM,88.0,68.0,51,29.89,10.0,East,4.6,-,N/A,,Clear,80,2013-09-02 20:53:00
4:53 PM,91.0,68.0,47,29.86,10.0,NE,6.9,-,N/A,,Clear,40,2013-09-02 21:53:00
5:53 PM,90.0,68.0,48,29.86,10.0,North,5.8,-,N/A,,Clear,350,2013-09-02 22:53:00
6:53 PM,88.0,70.0,55,29.85,10.0,Calm,Calm,-,N/A,,Clear,0,2013-09-02 23:53:00
7:53 PM,82.9,73.0,72,29.85,10.0,Calm,Calm,-,N/A,,Clear,0,2013-09-03 00:53:00
8:53 PM,80.1,72.0,76,29.86,10.0,Calm,Calm,-,N/A,,Clear,0,2013-09-03 01:53:00
9:53 PM,78.1,72.0,81,29.88,10.0,Calm,Calm,-,N/A,,Clear,0,2013-09-03 02:53:00
10:53 PM,77.0,72.0,84,29.89,10.0,Calm,Calm,-,N/A,,Partly Cloudy,0,2013-09-03 03:53:00
11:53 PM,77.0,71.1,82,29.89,10.0,Calm,Calm,-,N/A,,Clear,0,2013-09-03 04:53:00